Regional Weather Roundup
Issued by NWS Cleveland, OH

Home | Current Version | Previous Version | Graphics & Text | Print | Product List | Glossary On
Versions: 1 2 3 4 5 6 7 8 9 10 11 12 13 14 15 16 17 18 19 20 21 22 23 24 25 26 27 28 29 30 31 32 33 34 35 36 37 38 39 40 41 42 43 44 45 46 47 48 49 50
000
ASUS41 KCLE 192010
RWRCLE
OHIO REGIONAL WEATHER ROUNDUP
NATIONAL WEATHER SERVICE CLEVELAND, OH
400 PM EDT TUE SEP 19 2017

NOTE: "FAIR" INDICATES FEW OR NO CLOUDS BELOW 12,000 FEET WITH NO
SIGNIFICANT WEATHER AND/OR OBSTRUCTIONS TO VISIBILITY.

OHZ001>008-015>018-024>027-034-035-043-044-192100-
   NORTHWEST OHIO

CITY           SKY/WX    TMP DP  RH WIND       PRES   REMARKS
DEFIANCE       LGT RAIN  73  66  78 SE7       29.93S
FINDLAY        HVY RAIN  72  67  84 S12       29.93F
TOLEDO EXPRESS CLOUDY    70  32  24 SE6       29.94F HAZE
TOLEDO EXEC    CLOUDY    73  69  87 E3        29.95F
LIMA           CLOUDY    72  70  93 S8        29.94F
$$

OHZ009>014-019>023-028>033-038-089-192100-
   NORTHEAST OHIO

CITY           SKY/WX    TMP DP  RH WIND       PRES   REMARKS
CLE-HOPKINS    CLOUDY    81  66  60 N8        29.98F
CLE-LAKEFRONT  CLOUDY    78  67  68 N10       29.96F
CUY CO. ARPT   PTSUNNY   75  63  64 E8        29.98F
LORAIN-ELYRIA  PTSUNNY   77  62  59 CALM      29.96F
ASHTABULA      CLOUDY    76  69  79 NW6       29.98F
AKRON-CANTON   CLOUDY    82  62  50 VRB6      29.98F
WOOSTER        CLOUDY    78  65  63 SW7       29.98F
MANSFIELD      CLOUDY    78  64  61 SW10      29.97F
YOUNGSTOWN     PTSUNNY   82  62  50 VRB3      29.97F
$$

OHZ042-051>053-060>062-070>072-077>081-192100-
  SOUTHWEST OHIO

CITY           SKY/WX    TMP DP  RH WIND       PRES   REMARKS
CINC-COVINGTON CLOUDY    76  68  76 CALM      29.95F
CINC-LUNKEN    MOSUNNY   77  69  76 CALM      29.94F
HAMILTON       CLOUDY    77  68  73 E3        29.95F
DAYTON         CLOUDY    71  67  87 S7        29.96F
WRIGHT-PAT AFB PTSUNNY   73  70  89 S7        29.95F
DAYTON GENERAL CLOUDY    75  65  70 S6        29.95F
WILMINGTON     CLOUDY    74  70  87 CALM      29.95F
$$

OHZ036-037-039>041-045>050-054>059-063>069-073>076-082>088-192100-
  CENTRAL AND SOUTHEAST OHIO

CITY           SKY/WX    TMP DP  RH WIND       PRES   REMARKS
COLUMBUS       CLOUDY    76  68  76 W8        29.96F
OSU AIRPORT    LGT RAIN  71  69  93 CALM      29.96F
BOLTON FIELD   PTSUNNY   72  68  88 SW8       29.97F
RICKENBACK AFB CLOUDY    73  69  87 SW6       29.96F
NEWARK         CLOUDY    77  64  64 W7        29.96F
MARION         PTSUNNY   74  65  73 S14       29.96F
LANCASTER      CLOUDY    75  67  76 VRB3      29.98F
ZANESVILLE     CLOUDY    78  65  63 S3        29.97F
NEW PHILLY     NOT AVBL
$$




USA.gov is the U.S. government's official web portal to all federal, state and local government web resources and services.